Home > Weather > Shymkent > Past weeks

Flag for Kazakhstan Past Weather in Shymkent, Kazakhstan — Yesterday and Last 2 Weeks

Now
75 °F

Mostly cloudy.


Feels Like: 78 °F
Forecast: 68 / 89 °F
Wind: 13 mph from South

Location: Shymkent Airport

Current Time: Jul 28, 2016 at 3:13:41 AM

Latest Report: Jul 28, 2016 at 2:30 AM


Visibility: N/A

Pressure: 29.65 "Hg (27.97 "Hg at 506m altitude)

Humidity: 57%

Dew Point: 59 °F

Location of ShymkentLocation

Past Weather in Shymkent — Graph

°F

Shymkent Temperature Yesterday

Maximum temperature yesterday: 99 °F (at 3:00 PM)
Minimum temperature yesterday: 73 °F (at 6:00 AM)
Average temperature yesterday: 85 °F

High & Low Weather Summary for the Past Weeks

 TemperatureHumidityPressure
High104 °F (Jul 13, 4:00 PM)78% (Jul 14, 12:30 PM)29.92 "Hg (Jul 14, 12:30 PM)
Low63 °F (Jul 23, 6:30 AM)10% (Jul 20, 4:00 PM)29.56 "Hg (Jul 18, 4:30 AM)
Average84 °F33%29.72 "Hg
* Reported Jul 13 1:00 AM — Jul 28 1:30 AM, Shymkent, Weather by CustomWeather, © 2016

Note: Actual official high and low records may vary slightly from our data, if they occured in-between our weather recording intervals... More about our weather records

Advertising

Shymkent Weather History for the Previous 24 Hours

Scroll right to see more
 ConditionsComfort  
Time TempWeatherWind HumidityBarometerVisibility
1:30 AM
Thu, Jul 28
75 °FThundershowers. Mostly cloudy.6 mph61%29.68 "HgN/A
1:00 AM75 °FThundershowers. Mostly cloudy.6 mph65%29.68 "HgN/A
12:30 AM81 °FThundershowers. Mostly cloudy.13 mph48%29.71 "HgN/A
12:00 AM81 °FMostly cloudy.13 mph51%29.68 "HgN/A
11:30 PM
Wed, Jul 27
79 °FThundershowers. Mostly cloudy.6 mph58%29.68 "HgN/A
11:00 PM81 °FThundershowers. Mostly cloudy.1 mph54%29.68 "HgN/A
10:30 PM81 °FMostly cloudy.3 mph51%29.68 "HgN/A
10:00 PM82 °FMostly cloudy.6 mph48%29.68 "HgN/A
9:30 PM82 °FThundershowers. Mostly cloudy.1 mph48%29.71 "HgN/A
9:00 PM84 °FMostly cloudy.1 mph43%29.68 "HgN/A
8:30 PM84 °FMostly cloudy.13 mph43%29.68 "HgN/A
8:00 PM84 °FMostly cloudy.13 mph45%29.68 "HgN/A
7:30 PM86 °FMostly cloudy.10 mph40%29.68 "HgN/A
7:00 PM90 °FOvercast.6 mph31%29.68 "HgN/A
6:30 PM90 °FSunny.6 mph31%29.68 "Hg10 mi
6:00 PM91 °FSunny.8 mph28%29.65 "Hg10 mi
5:30 PM93 °FSunny.8 mph28%29.65 "Hg10 mi
5:00 PM95 °FPassing clouds.10 mph26%29.65 "HgN/A
4:30 PM97 °FSunny.8 mph20%29.62 "Hg10 mi
4:00 PM97 °FSunny.6 mph19%29.62 "Hg10 mi
3:30 PM99 °FPassing clouds.6 mph19%29.62 "HgN/A
3:00 PM99 °FPassing clouds.3 mph18%29.65 "HgN/A
2:30 PM97 °FSunny.3 mph20%29.65 "Hg10 mi
2:00 PM95 °FPartly sunny.6 mph20%29.65 "HgN/A
1:30 PM95 °FPartly sunny.8 mph22%29.68 "HgN/A
1:00 PM95 °FPartly sunny.8 mph23%29.71 "HgN/A
12:30 PM93 °FPartly sunny.10 mph24%29.74 "HgN/A
12:00 PM90 °FPartly sunny.6 mph27%29.74 "HgN/A
11:30 AM91 °FPartly sunny.8 mph23%29.74 "HgN/A
11:00 AM90 °FOvercast.6 mph29%29.74 "HgN/A
10:30 AM88 °FOvercast.10 mph29%29.74 "HgN/A
10:00 AM88 °FOvercast.3 mph29%29.74 "HgN/A
9:30 AM88 °FSunny.1 mph29%29.74 "Hg10 mi
9:00 AM86 °FSunny.6 mph33%29.71 "Hg10 mi
8:30 AM84 °FSunny.6 mph33%29.71 "Hg10 mi
8:00 AM81 °FOvercast.3 mph39%29.71 "Hg5 mi
7:30 AM77 °FPartly sunny.No wind42%29.74 "Hg5 mi
7:00 AM77 °FPartly sunny.1 mph42%29.71 "Hg5 mi
6:30 AM75 °FPartly sunny.3 mph44%29.68 "Hg5 mi
6:00 AM73 °FPassing clouds.1 mph53%29.68 "Hg5 mi
5:30 AM75 °FPassing clouds.3 mph50%29.68 "Hg5 mi
5:00 AM75 °FPassing clouds.6 mph50%29.68 "Hg5 mi
4:30 AM75 °FPassing clouds.3 mph50%29.65 "Hg5 mi
4:00 AM77 °FPassing clouds.3 mph47%29.65 "Hg5 mi
3:30 AM77 °FPassing clouds.6 mph47%29.65 "Hg5 mi
3:00 AM77 °FPassing clouds.3 mph47%29.65 "Hg5 mi
Weather by CustomWeather, © 2016

See weather overviewHow to use our weather pages